SCOUT A DEB, 2141

Orbit data source: Space-Track

SCOUT A DEB, 2141 is space debris in LEO originally from a launch on Fri, 28 Jan 1966 UTC launched from the Air Force Western Test Range (AFWTR). Debris objects in space refer to the collection of defunct objects orbiting the Earth. Examples of debris include non-operational satellites, rocket bodies, and fragments generated from explosions, collisions, or faulty payload assembly.

Loading next visibility...
Identifier
2141, 1966-005D
Orbit
LEO
Country
Flag of USUS
Related business
Manufacturer
Unknown
Mission
Spacecraft
Bus & Motor
Unknown
Mass
Unknown
Launch date (UTC)
1966-01-28 (60 years ago)
Launch vehicle
Unknown
Launch site
Air Force Western Test Range (AFWTR)
Object type
Payload
Rocket body
Debris
Shape & HBR
Unknown shape, 0.1 m
Radar Cross Section
Small (<0.1 m²)

Expand to show TLE details & history
Last TLE update: 2 days ago

TLE from 2 days ago
0 SCOUT A DEB
1 02141U 66005D   25306.56134763  .00001022  00000-0  58486-3 0  9995
2 02141  90.2357 252.5825 0117781  63.5581 297.7629 14.05521252 36747
Epoch: 2025-11-02T13:28Z
TLE epoch observation values (Epoch: 2025-11-02T13:28:20.435Z)
Latitude
-0.00002°
Longitude
8.42205°
Altitude
838.767 km
Speed
7.453 km/s
True Right ascension
16h 50m 19s
True Declination
0° 00' 00"
Sunlit
Object was in daylight at epoch
Visualization orbit readout
Latitude
Unknown
Longitude
Unknown
Altitude
Unknown
Speed
Unknown
Apparent Right ascension
Unknown
Apparent Declination
Unknown
Sunlit
N/A
Visualization observer readout
Local Sidereal Time
15:44:18
Azimuth
Unknown
Elevation
Unknown
Doppler factor
Unknown
Orbital elements
Apogee altitude
957.097 km
Perigee altitude
786.318 km
Semi-major axis
7,249.844 km
Eccentricity
0.01178
Inclination
90.2357°
RAAN
252.5825°
Arg. of periapsis
63.5581°
True anomaly
296.56044°
Mean anomaly
297.7629°
Eccentric anomaly
297.16249°
Mean motion
3.51601 °/min
Orbital period
102.39 mins
BSTAR
0.00058486
Loading maneuver chart data...
Computing Atmospheric mass density...
Loading historical data...
Loading historical data...
Loading historical data...
Loading historical data...
Loading historical data...
Loading historical data...
Loading historical data...

Documentation

Showing up to 5 results
|